Regional Weather Roundup
Issued by NWS Bismarck, ND

Home | Current Version | Previous Version | Text Only | Print | Product List | Glossary On
Versions: 1 2 3 4 5 6 7 8 9 10 11 12 13 14 15 16 17 18 19 20 21 22 23 24 25 26 27 28 29 30 31 32 33 34 35 36 37 38 39 40 41 42 43 44 45 46 47 48 49 50
000
ASUS43 KBIS 230820
RWRBIS

NWR BROADCAST TEXT
NATIONAL WEATHER SERVICE BISMARCK ND
200 AM CST SUN NOV 23 2014

NOTE: "FAIR" INDICATES FEW OR NO CLOUDS BELOW 12,000 FEET WITH NO
SIGNIFICANT WEATHER AND/OR OBSTRUCTIONS TO VISIBILITY.


CITY           SKY/WX    TMP DP  RH WIND       PRES   REMARKS
WILLISTON      CLOUDY    38  31  76 W20G26    29.34R
MINOT          MOCLDY    39  28  64 SW14G22   29.29R
MINOT AFB      MOCLDY    37  30  76 W15       29.28R
BISMARCK       LGT RAIN  37  35  92 SW6       29.41R
DICKINSON      CLOUDY    36  29  75 W22G28    29.39S
GARRISON         N/A     36  30  79 W12       29.34R
HETTINGER ARPT CLOUDY    37  27  67 W20       29.47R
JAMESTOWN      MOCLDY    34  31  88 W5        29.36R
BEACH          CLOUDY    36  32  87 W25G35    29.44F
CARRINGTON     PTSUNNY   37  37 100 SW12      29.34F
CROSBY         CLOUDY    36  30  80 W20G30    29.29R
HARVEY         FAIR      32  32 100 SW10      29.33R
HAZEN          FAIR      36  32  87 W9        29.39R
LINTON         MIX PCPN  39  37  93 W12       29.41R
MANDAN         CLOUDY    37  34  87 SW12      29.41R
OAKES            N/A     34  32  93 W5        29.40R
RUGBY          FAIR      32  30  93 SW12      29.29S
STANLEY        CLOUDY    37  36  93 W20G30    29.29F
TIOGA          CLOUDY    36  36 100 W16G24    29.32R
$$

CITY           SKY/WX    TMP DP  RH WIND       PRES   REMARKS
GRAND FORKS    CLOUDY    34  31  88 S16       29.36R
GRAND FORKS AF CLOUDY    32  32 100 SW12      29.35R
DEVILS LAKE    PTCLDY    34  25  69 CALM      29.29R
FARGO          CLOUDY    35  32  88 S12       29.39R FOG
CANDO          FAIR      32  28  86 SW7       29.29S
CAVALIER       FAIR      32  30  93 S10       29.32R FOG
GRAFTON        CLOUDY    32  32 100 S14G20    29.35R FOG
GWINNER        SUNNY     36  34  93 W14       29.40R
LANGDON        FAIR      28  27  93 S7        29.27F
ROLLA          FAIR      27  27 100 S8        29.27S WCI  18
WALHALLA         N/A     28  28 100 SE7       29.30S
$$

CITY           SKY/WX    TMP DP  RH WIND       PRES   REMARKS
ABERDEEN       CLOUDY    35  32  88 W7        29.42S
MOBRIDGE       LGT RAIN  40  38  93 NW8       29.43R
BUFFALO          N/A     37  25  61 W23       29.45R
RAPID CITY     CLOUDY    42  22  44 NW24      29.53S
GLASGOW        CLOUDY    37  25  61 NW38G45   29.45R
SIDNEY         CLOUDY    39  28  65 W20G29    29.40R
WOLF POINT     CLOUDY    39  30  70 W23G32    29.41R
GLENDIVE       PTCLDY    36  28  75 W23G30    29.45R
MILES CITY     CLOUDY    39  26  59 W28G39    29.55R
BAKER          MOCLDY    34  30  85 W25G37    29.49S
$$

CITY           SKY/WX    TMP DP  RH WIND       PRES   REMARKS
BILLINGS       CLEAR     34  16  47 W12       29.68R
GREAT FALLS    MOCLDY    32  20  61 W15       29.71R
REGINA         FLURRIES  30  30 100 N17G29    29.21R WCI  18
ESTEVAN        FLURRIES N/A N/A N/A W18G26      N/A
$$



USA.gov is the U.S. government's official web portal to all federal, state and local government web resources and services.